Terug naar catalogus

CZ-6A DEB

ActiefPO
NORAD 60860·DEBRIS·🇨🇳 China

Gelanceerd Aug 6, 2024 vanaf Taiyuan Satellite Launch Center

Loading…

Volgende Passages (komende 24 uur)

TLE

VersSource: Space-Track

Epoch: Sep 14, 2026, 17:56 UTC

1 60860U 24140JP  26257.74764337  .00000183  00000-0  86555-4 0  9999
2 60860  89.0431 269.6517 0064996 269.9316  89.4423 14.14526317107476

Volg CZ-6A DEB in realtime met AllMySat

Download on the App Store